| time (UTC) | temp F | wind direction | speed MPH | gust MPH | rain 1hr in | rain 24hr in | rain mn in | humidity % | barometer mb |
| 20260505065017 | 61 | 241 | 3.0 | 8.0 | 0.00 | 0.00 | 0.00 | 69 | 1013.6 |
| 20260505064519 | 61 | 224 | 3.0 | 17.0 | 0.00 | 0.00 | 0.00 | 69 | 1013.6 |
| 20260505064018 | 61 | 189 | 5.0 | 17.0 | 0.00 | 0.00 | 0.00 | 68 | 1013.8 |
| 20260505063519 | 62 | 220 | 4.0 | 12.0 | 0.00 | 0.00 | 0.00 | 68 | 1013.6 |
| 20260505063021 | 62 | 213 | 5.0 | 15.0 | 0.00 | 0.00 | 0.00 | 67 | 1013.7 |
| 20260505062521 | 62 | 211 | 5.0 | 14.0 | 0.00 | 0.00 | 0.00 | 67 | 1013.8 |
| 20260505062021 | 62 | 219 | 4.0 | 8.0 | 0.00 | 0.00 | 0.00 | 66 | 1013.8 |
| 20260505061521 | 62 | 207 | 4.0 | 8.0 | 0.00 | 0.00 | 0.00 | 66 | 1013.7 |
| 20260505061022 | 62 | 219 | 4.0 | 10.0 | 0.00 | 0.00 | 0.00 | 66 | 1013.8 |
| 20260505060523 | 62 | 237 | 5.0 | 12.0 | 0.00 | 0.00 | 0.00 | 66 | 1013.9 |
| 20260505060025 | 62 | 215 | 4.0 | 12.0 | 0.00 | 0.00 | 0.00 | 65 | 1014.0 |
| 20260505055526 | 62 | 191 | 4.0 | 10.0 | 0.00 | 0.00 | 0.00 | 65 | 1014.0 |
| 20260505055042 | 62 | 213 | 4.0 | 10.0 | 0.00 | 0.00 | 0.00 | 64 | 1014.1 |
| 20260505054521 | 63 | 213 | 3.0 | 10.0 | 0.00 | 0.00 | 0.00 | 64 | 1014.1 |
| 20260505054019 | 63 | 198 | 3.0 | 8.0 | 0.00 | 0.00 | 0.00 | 64 | 1014.0 |
| 20260505053521 | 63 | 183 | 3.0 | 8.0 | 0.00 | 0.00 | 0.00 | 63 | 1014.0 |
| 20260505053022 | 62 | 205 | 4.0 | 9.0 | 0.00 | 0.00 | 0.00 | 64 | 1014.0 |
| 20260505052549 | 62 | 209 | 4.0 | 9.0 | 0.00 | 0.00 | 0.00 | 64 | 1014.0 |
| 20260505052026 | 61 | 224 | 4.0 | 8.0 | 0.00 | 0.00 | 0.00 | 64 | 1014.0 |
| 20260505051529 | 61 | 200 | 5.0 | 8.0 | 0.00 | 0.00 | 0.00 | 64 | 1013.9 |
| 20260505051030 | 61 | 160 | 2.0 | 7.0 | 0.00 | 0.00 | 0.00 | 65 | 1013.8 |
| 20260505050514 | 62 | 149 | 5.0 | 9.0 | 0.00 | 0.00 | 0.00 | 62 | 1013.9 |
| 20260505041523 | 67 | 179 | 3.0 | 7.0 | 0.00 | 0.00 | 0.00 | 52 | 1013.6 |
| 20260505041023 | 67 | 209 | 3.0 | 6.0 | 0.00 | 0.00 | 0.00 | 52 | 1013.6 |
| 20260505040523 | 67 | 204 | 3.0 | 7.0 | 0.00 | 0.00 | 0.00 | 52 | 1013.6 |
| 20260505040045 | 66 | 174 | 3.0 | 7.0 | 0.00 | 0.00 | 0.00 | 52 | 1013.7 |
| 20260505035520 | 66 | 213 | 3.0 | 7.0 | 0.00 | 0.00 | 0.00 | 53 | 1013.7 |
| 20260505035018 | 65 | 172 | 4.0 | 7.0 | 0.00 | 0.00 | 0.00 | 54 | 1013.7 |
| 20260505034540 | 65 | 161 | 3.0 | 5.0 | 0.00 | 0.00 | 0.00 | 55 | 1013.7 |
| 20260505034020 | 65 | 175 | 4.0 | 5.0 | 0.00 | 0.00 | 0.00 | 55 | 1013.8 |
| 20260505033521 | 65 | 169 | 4.0 | 5.0 | 0.00 | 0.00 | 0.00 | 54 | 1013.9 |
| 20260505033021 | 66 | 230 | 2.0 | 5.0 | 0.00 | 0.00 | 0.00 | 53 | 1013.7 |
| 20260505032540 | 66 | 200 | 3.0 | 5.0 | 0.00 | 0.00 | 0.00 | 53 | 1013.8 |
| 20260505032020 | 66 | 182 | 2.0 | 5.0 | 0.00 | 0.00 | 0.00 | 53 | 1013.9 |
| 20260505031540 | 66 | 180 | 3.0 | 5.0 | 0.00 | 0.00 | 0.00 | 53 | 1013.9 |
| 20260505031022 | 66 | 192 | 3.0 | 5.0 | 0.00 | 0.00 | 0.00 | 53 | 1013.8 |
| 20260505030540 | 66 | 178 | 3.0 | 5.0 | 0.00 | 0.00 | 0.00 | 53 | 1013.8 |
| 20260505030041 | 66 | 182 | 3.0 | 4.0 | 0.00 | 0.00 | 0.00 | 53 | 1013.9 |
| 20260505025520 | 66 | 160 | 3.0 | 4.0 | 0.00 | 0.00 | 0.00 | 53 | 1013.9 |
| 20260505025024 | 67 | 166 | 2.0 | 5.0 | 0.00 | 0.00 | 0.00 | 50 | 1013.9 |
| 20260505024526 | 68 | 194 | 3.0 | 6.0 | 0.00 | 0.00 | 0.00 | 48 | 1013.9 |
| 20260505024050 | 68 | 196 | 3.0 | 6.0 | 0.00 | 0.00 | 0.00 | 48 | 1013.9 |
| 20260505023518 | 69 | 188 | 3.0 | 8.0 | 0.00 | 0.00 | 0.00 | 48 | 1013.9 |
| 20260505023022 | 69 | 217 | 3.0 | 9.0 | 0.00 | 0.00 | 0.00 | 47 | 1013.9 |
| 20260505022523 | 69 | 207 | 3.0 | 9.0 | 0.00 | 0.00 | 0.00 | 47 | 1013.9 |
| 20260505022052 | 69 | 219 | 3.0 | 7.0 | 0.00 | 0.00 | 0.00 | 48 | 1013.8 |
| 20260505021514 | 69 | 220 | 3.0 | 8.0 | 0.00 | 0.00 | 0.00 | 48 | 1013.8 |
| 20260505021029 | 68 | 215 | 3.0 | 7.0 | 0.00 | 0.00 | 0.00 | 48 | 1013.8 |
| 20260505020517 | 68 | 192 | 3.0 | 6.0 | 0.00 | 0.00 | 0.00 | 48 | 1013.7 |
| 20260505020020 | 68 | 189 | 3.0 | 7.0 | 0.00 | 0.00 | 0.00 | 49 | 1013.7 |
| 20260505015521 | 68 | 176 | 4.0 | 7.0 | 0.00 | 0.00 | 0.00 | 48 | 1013.6 |
| 20260505015027 | 68 | 198 | 3.0 | 6.0 | 0.00 | 0.00 | 0.00 | 48 | 1013.6 |
| 20260505014514 | 68 | 167 | 3.0 | 7.0 | 0.00 | 0.00 | 0.00 | 48 | 1013.5 |
| 20260505014038 | 69 | 220 | 3.0 | 7.0 | 0.00 | 0.00 | 0.00 | 48 | 1013.6 |
| 20260505013519 | 69 | 242 | 3.0 | 6.0 | 0.00 | 0.00 | 0.00 | 47 | 1013.5 |
| 20260505013021 | 69 | 244 | 3.0 | 6.0 | 0.00 | 0.00 | 0.00 | 47 | 1013.6 |
| 20260505012519 | 69 | 207 | 3.0 | 6.0 | 0.00 | 0.00 | 0.00 | 47 | 1013.4 |
| 20260505012021 | 69 | 200 | 3.0 | 5.0 | 0.00 | 0.00 | 0.00 | 47 | 1013.4 |
| 20260505011522 | 69 | 209 | 2.0 | 5.0 | 0.00 | 0.00 | 0.00 | 47 | 1013.3 |
| 20260505011040 | 69 | 191 | 3.0 | 6.0 | 0.00 | 0.00 | 0.00 | 47 | 1013.3 |
| 20260505010544 | 69 | 173 | 3.0 | 7.0 | 0.00 | 0.00 | 0.00 | 47 | 1013.2 |
| 20260505010023 | 69 | 170 | 3.0 | 7.0 | 0.00 | 0.00 | 0.00 | 48 | 1013.3 |
| 20260505005524 | 69 | 175 | 3.0 | 6.0 | 0.00 | 0.00 | 0.00 | 49 | 1013.3 |
| 20260505005025 | 69 | 218 | 3.0 | 7.0 | 0.00 | 0.00 | 0.00 | 49 | 1013.3 |
| 20260505004527 | 69 | 175 | 3.0 | 8.0 | 0.00 | 0.00 | 0.00 | 50 | 1013.3 |
| 20260505004028 | 69 | 190 | 4.0 | 7.0 | 0.00 | 0.00 | 0.00 | 51 | 1013.2 |
| 20260505003518 | 69 | 171 | 3.0 | 6.0 | 0.00 | 0.00 | 0.00 | 51 | 1013.1 |
| 20260505003022 | 69 | 180 | 2.0 | 6.0 | 0.00 | 0.00 | 0.00 | 51 | 1013.2 |
| 20260505002525 | 68 | 180 | 2.0 | 6.0 | 0.00 | 0.00 | 0.00 | 52 | 1013.1 |
| 20260505002026 | 69 | 158 | 3.0 | 8.0 | 0.00 | 0.00 | 0.00 | 52 | 1013.1 |
| 20260505001522 | 69 | 155 | 4.0 | 8.0 | 0.00 | 0.00 | 0.00 | 52 | 1013.1 |
| 20260505001017 | 70 | 152 | 4.0 | 7.0 | 0.00 | 0.00 | 0.00 | 51 | 1013.0 |
| 20260505000517 | 70 | 138 | 3.0 | 5.0 | 0.00 | 0.00 | 0.00 | 50 | 1013.1 |
| 20260505000020 | 71 | 161 | 3.0 | 6.0 | 0.00 | 0.00 | 0.00 | 49 | 1013.2 |
| 20260504235520 | 71 | 166 | 3.0 | 8.0 | 0.00 | 0.00 | 0.00 | 48 | 1013.0 |
| 20260504235045 | 72 | 141 | 5.0 | 9.0 | 0.00 | 0.00 | 0.00 | 48 | 1013.1 |
| 20260504234526 | 72 | 162 | 5.0 | 9.0 | 0.00 | 0.00 | 0.00 | 47 | 1013.2 |
| 20260504234051 | 73 | 160 | 4.0 | 8.0 | 0.00 | 0.00 | 0.00 | 46 | 1013.3 |
| 20260504233519 | 73 | 163 | 3.0 | 9.0 | 0.00 | 0.00 | 0.00 | 45 | 1013.3 |
| 20260504233024 | 74 | 171 | 6.0 | 13.0 | 0.00 | 0.00 | 0.00 | 44 | 1013.4 |
| 20260504232531 | 74 | 169 | 6.0 | 13.0 | 0.00 | 0.00 | 0.00 | 45 | 1013.2 |
| 20260504232031 | 74 | 171 | 5.0 | 11.0 | 0.00 | 0.00 | 0.00 | 45 | 1013.3 |
| 20260504231521 | 74 | 154 | 6.0 | 11.0 | 0.00 | 0.00 | 0.00 | 43 | 1013.3 |
| 20260504231017 | 75 | 161 | 3.0 | 7.0 | 0.00 | 0.00 | 0.00 | 45 | 1013.3 |
| 20260504230519 | 75 | 157 | 4.0 | 9.0 | 0.00 | 0.00 | 0.00 | 41 | 1013.3 |
| 20260504230018 | 75 | 193 | 3.0 | 15.0 | 0.00 | 0.00 | 0.00 | 39 | 1013.4 |
| 20260504225538 | 76 | 192 | 5.0 | 15.0 | 0.00 | 0.00 | 0.00 | 43 | 1013.4 |
| 20260504225020 | 76 | 190 | 4.0 | 10.0 | 0.00 | 0.00 | 0.00 | 39 | 1013.4 |
| 20260504224521 | 76 | 163 | 2.0 | 9.0 | 0.00 | 0.00 | 0.00 | 40 | 1013.4 |
| 20260504224048 | 76 | 175 | 4.0 | 9.0 | 0.00 | 0.00 | 0.00 | 40 | 1013.5 |
| 20260504223552 | 76 | 158 | 4.0 | 10.0 | 0.00 | 0.00 | 0.00 | 40 | 1013.4 |
| 20260504223031 | 76 | 176 | 4.0 | 10.0 | 0.00 | 0.00 | 0.00 | 40 | 1013.5 |
| 20260504222530 | 77 | 199 | 4.0 | 8.0 | 0.00 | 0.00 | 0.00 | 39 | 1013.6 |
| 20260504222028 | 77 | 163 | 3.0 | 9.0 | 0.00 | 0.00 | 0.00 | 41 | 1013.5 |
| 20260504221530 | 77 | 232 | 3.0 | 10.0 | 0.00 | 0.00 | 0.00 | 40 | 1013.5 |
| 20260504221016 | 77 | 169 | 3.0 | 10.0 | 0.00 | 0.00 | 0.00 | 37 | 1013.7 |
| 20260504220517 | 77 | 136 | 3.0 | 9.0 | 0.00 | 0.00 | 0.00 | 40 | 1013.7 |
| 20260504220019 | 77 | 172 | 5.0 | 9.0 | 0.00 | 0.00 | 0.00 | 39 | 1013.6 |
| 20260504215521 | 77 | 256 | 6.0 | 10.0 | 0.00 | 0.00 | 0.00 | 38 | 1013.6 |
| 20260504215019 | 78 | 160 | 3.0 | 10.0 | 0.00 | 0.00 | 0.00 | 42 | 1013.7 |
| 20260504214541 | 77 | 185 | 7.0 | 11.0 | 0.00 | 0.00 | 0.00 | 41 | 1013.8 |
| 20260504214022 | 77 | 193 | 1.0 | 9.0 | 0.00 | 0.00 | 0.00 | 37 | 1013.7 |
| 20260504213524 | 78 | 296 | 3.0 | 9.0 | 0.00 | 0.00 | 0.00 | 40 | 1013.9 |
| 20260504213029 | 78 | 234 | 4.0 | 9.0 | 0.00 | 0.00 | 0.00 | 40 | 1013.8 |
| 20260504212513 | 79 | 161 | 3.0 | 9.0 | 0.00 | 0.00 | 0.00 | 40 | 1013.9 |
| 20260504212021 | 79 | 167 | 3.0 | 14.0 | 0.00 | 0.00 | 0.00 | 43 | 1013.8 |
| 20260504211520 | 78 | 197 | 5.0 | 14.0 | 0.00 | 0.00 | 0.00 | 42 | 1013.7 |
| 20260504211021 | 78 | 186 | 5.0 | 14.0 | 0.00 | 0.00 | 0.00 | 40 | 1013.9 |
| 20260504210546 | 78 | 214 | 5.0 | 12.0 | 0.00 | 0.00 | 0.00 | 41 | 1014.0 |
| 20260504210015 | 79 | 215 | 5.0 | 12.0 | 0.00 | 0.00 | 0.00 | 37 | 1013.8 |
| 20260504205517 | 79 | 118 | 2.0 | 10.0 | 0.00 | 0.00 | 0.00 | 38 | 1014.0 |
| 20260504205042 | 77 | 178 | 7.0 | 10.0 | 0.00 | 0.00 | 0.00 | 39 | 1014.1 |
| 20260504204524 | 77 | 182 | 5.0 | 14.0 | 0.00 | 0.00 | 0.00 | 37 | 1014.1 |
| 20260504204024 | 78 | 182 | 9.0 | 15.0 | 0.00 | 0.00 | 0.00 | 40 | 1014.0 |
| 20260504203523 | 78 | 217 | 7.0 | 15.0 | 0.00 | 0.00 | 0.00 | 41 | 1014.0 |
| 20260504203023 | 78 | 131 | 5.0 | 11.0 | 0.00 | 0.00 | 0.00 | 45 | 1014.1 |
| 20260504202525 | 76 | 155 | 2.0 | 11.0 | 0.00 | 0.00 | 0.00 | 46 | 1014.2 |
| 20260504202044 | 76 | 121 | 5.0 | 15.0 | 0.00 | 0.00 | 0.00 | 43 | 1014.2 |
| 20260504201523 | 78 | 161 | 9.0 | 15.0 | 0.00 | 0.00 | 0.00 | 42 | 1014.1 |
| 20260504201025 | 79 | 152 | 5.0 | 9.0 | 0.00 | 0.00 | 0.00 | 39 | 1014.2 |
| 20260504200526 | 80 | 142 | 4.0 | 11.0 | 0.00 | 0.00 | 0.00 | 45 | 1014.2 |
| 20260504200025 | 79 | 167 | 5.0 | 11.0 | 0.00 | 0.00 | 0.00 | 40 | 1014.3 |
| 20260504195530 | 79 | 341 | 2.0 | 13.0 | 0.00 | 0.00 | 0.00 | 42 | 1014.4 |
| 20260504195018 | 79 | 135 | 5.0 | 13.0 | 0.00 | 0.00 | 0.00 | 45 | 1014.5 |
| 20260504194522 | 78 | 136 | 2.0 | 9.0 | 0.00 | 0.00 | 0.00 | 46 | 1014.5 |
| 20260504194024 | 78 | 128 | 6.0 | 9.0 | 0.00 | 0.00 | 0.00 | 44 | 1014.6 |
| 20260504193524 | 78 | 209 | 4.0 | 10.0 | 0.00 | 0.00 | 0.00 | 40 | 1014.7 |
| 20260504193025 | 78 | 143 | 5.0 | 10.0 | 0.00 | 0.00 | 0.00 | 44 | 1014.6 |
| 20260504192531 | 78 | 180 | 5.0 | 12.0 | 0.00 | 0.00 | 0.00 | 41 | 1014.7 |
| 20260504192013 | 79 | 138 | 7.0 | 12.0 | 0.00 | 0.00 | 0.00 | 42 | 1014.8 |
| 20260504191532 | 78 | 162 | 4.0 | 7.0 | 0.00 | 0.00 | 0.00 | 40 | 1014.8 |
| 20260504191047 | 78 | 128 | 1.0 | 8.0 | 0.00 | 0.00 | 0.00 | 41 | 1014.9 |
| 20260504190515 | 78 | 167 | 4.0 | 10.0 | 0.00 | 0.00 | 0.00 | 46 | 1015.0 |
| 20260504190016 | 77 | 155 | 3.0 | 10.0 | 0.00 | 0.00 | 0.00 | 43 | 1015.2 |
| 20260504185517 | 77 | 178 | 2.0 | 7.0 | 0.00 | 0.00 | 0.00 | 40 | 1015.4 |
| 20260504185021 | 78 | 225 | 2.0 | 9.0 | 0.00 | 0.00 | 0.00 | 44 | 1015.3 |
| 20260504184524 | 77 | 111 | 6.0 | 9.0 | 0.00 | 0.00 | 0.00 | 43 | 1015.4 |
| 20260504184027 | 77 | 146 | 5.0 | 11.0 | 0.00 | 0.00 | 0.00 | 45 | 1015.5 |
| 20260504183532 | 77 | 159 | 7.0 | 11.0 | 0.00 | 0.00 | 0.00 | 43 | 1015.4 |
| 20260504183018 | 76 | 113 | 4.0 | 8.0 | 0.00 | 0.00 | 0.00 | 44 | 1015.6 |
| 20260504182523 | 77 | 242 | 2.0 | 10.0 | 0.00 | 0.00 | 0.00 | 49 | 1015.7 |
| 20260504182025 | 77 | 193 | 5.0 | 11.0 | 0.00 | 0.00 | 0.00 | 41 | 1015.7 |
| 20260504181528 | 77 | 246 | 2.0 | 7.0 | 0.00 | 0.00 | 0.00 | 45 | 1015.7 |
| 20260504181032 | 78 | 271 | 1.0 | 7.0 | 0.00 | 0.00 | 0.00 | 47 | 1015.7 |
| 20260504180537 | 76 | 77 | 3.0 | 8.0 | 0.00 | 0.00 | 0.00 | 45 | 1015.8 |
| 20260504180037 | 76 | 228 | 2.0 | 8.0 | 0.00 | 0.00 | 0.00 | 44 | 1015.9 |
| 20260504175541 | 76 | 207 | 2.0 | 8.0 | 0.00 | 0.00 | 0.00 | 44 | 1016.0 |
| 20260504175021 | 77 | 200 | 6.0 | 10.0 | 0.00 | 0.00 | 0.00 | 45 | 1016.2 |
| 20260504174523 | 76 | 145 | 4.0 | 9.0 | 0.00 | 0.00 | 0.00 | 45 | 1016.0 |
| 20260504174019 | 75 | 133 | 6.0 | 9.0 | 0.00 | 0.00 | 0.00 | 46 | 1016.1 |
| 20260504173522 | 75 | 174 | 2.0 | 6.0 | 0.00 | 0.00 | 0.00 | 45 | 1016.1 |
| 20260504173024 | 75 | 257 | 2.0 | 5.0 | 0.00 | 0.00 | 0.00 | 48 | 1016.1 |
| 20260504172523 | 75 | 265 | 2.0 | 6.0 | 0.00 | 0.00 | 0.00 | 46 | 1016.3 |
| 20260504172044 | 75 | 313 | 4.0 | 6.0 | 0.00 | 0.00 | 0.00 | 47 | 1016.3 |
| 20260504171529 | 75 | 296 | 4.0 | 9.0 | 0.00 | 0.00 | 0.00 | 46 | 1016.4 |
| 20260504171028 | 75 | 267 | 2.0 | 9.0 | 0.00 | 0.00 | 0.00 | 49 | 1016.6 |
| 20260504170518 | 75 | 239 | 1.0 | 6.0 | 0.00 | 0.00 | 0.00 | 53 | 1016.6 |
| 20260504151029 | 68 | 280 | 3.0 | 8.0 | 0.00 | 0.00 | 0.00 | 58 | 1017.3 |
| 20260504150516 | 67 | 244 | 3.0 | 8.0 | 0.00 | 0.00 | 0.00 | 62 | 1017.2 |
| 20260504141019 | 63 | 145 | 3.0 | 7.0 | 0.00 | 0.00 | 0.00 | 65 | 1017.5 |
| 20260504140522 | 62 | 198 | 4.0 | 7.0 | 0.00 | 0.00 | 0.00 | 65 | 1017.4 |
| 20260504130527 | 56 | 189 | 3.0 | 5.0 | 0.00 | 0.00 | 0.00 | 73 | 1017.4 |
| 20260504110525 | 54 | 193 | 3.0 | 6.0 | 0.00 | 0.00 | 0.00 | 67 | 1016.9 |
| 20260504100521 | 58 | 235 | 2.0 | 7.0 | 0.00 | 0.00 | 0.00 | 58 | 1016.8 |
| 20260504081530 | 59 | 187 | 4.0 | 8.0 | 0.00 | 0.00 | 0.00 | 55 | 1016.7 |
| 20260504081020 | 59 | 198 | 3.0 | 7.0 | 0.00 | 0.00 | 0.00 | 55 | 1016.7 |
| 20260504080523 | 59 | 229 | 4.0 | 8.0 | 0.00 | 0.00 | 0.00 | 55 | 1016.7 |